Location: Barcelona
(41.3830°N, 2.1830°E)
Time: 22:47:53
(UTC+01:00)

ISS - Pass Details

Date: 13 January 2018
Orbit: 402 x 407 km, 51.6° (Epoch: 23 January)

Event Time Altitude Azimuth Distance (km) Brightness Sun altitude
Exits shadow 05:33:43 12° 64° (ENE) 1,378 -0.5 -29.9°
Drops below altitude 10° 05:34:01 10° 67° (ENE) 1,466 -0.3 -29.8°
Sets 05:36:29 0° 86° (E) 2,326 1.2 -29.4°
